Regional Weather Roundup
Issued by NWS

Home | Current Version | Previous Version | Graphics & Text | Print | Product List | Glossary On
Versions: 1 2 3 4 5 6 7 8 9 10 11 12 13 14 15 16 17 18 19 20 21 22 23 24 25 26 27 28 29 30 31 32 33 34 35 36 37 38 39 40 41 42 43 44 45 46 47 48 49 50
000
ASUS43 KBIS 301759
RWRND

NORTH DAKOTA REGIONAL WEATHER ROUNDUP
NATIONAL WEATHER SERVICE BISMARCK ND
100 PM CDT THU OCT 30 2014

NOTE: "FAIR" INDICATES FEW OR NO CLOUDS BELOW 12,000 FEET WITH NO
SIGNIFICANT WEATHER AND/OR OBSTRUCTIONS TO VISIBILITY.


NDZ001>003-009>011-017-301900-
NORTHWEST NORTH DAKOTA

CITY           SKY/WX    TMP DP  RH WIND       PRES   REMARKS
WILLISTON      CLOUDY    38  32  79 NE9       30.43R
6HR MIN TEMP:  36; 6HR MAX TEMP:  38;

MINOT          CLOUDY    33  26  75 N14       30.43R
$$

NDZ018>021-031>035-040>046-301900-
SOUTHWEST NORTH DAKOTA

CITY           SKY/WX    TMP DP  RH WIND       PRES   REMARKS
BISMARCK       CLOUDY    36  32  85 N8        30.40R
6HR MIN TEMP:  32; 6HR MAX TEMP:  36;

GARRISON         N/A     35  29  78 N10G18    30.40R
6HR MIN TEMP:  30; 6HR MAX TEMP:  35;

HETTINGER ARPT CLOUDY    37  31  78 N12       30.38R
$$

NDZ004>008-012>016-024-026-027-054-301900-
NORTHEAST NORTH DAKOTA

CITY           SKY/WX    TMP DP  RH WIND       PRES   REMARKS
GRAND FORKS    CLOUDY    37  25  61 N26G36    30.32R
DEVILS LAKE    CLOUDY    34  18  51 N18G26    30.37R
$$

NDZ022-023-025-028>030-036>039-047>053-301900-
SOUTHEAST NORTH DAKOTA

CITY           SKY/WX    TMP DP  RH WIND       PRES   REMARKS
FARGO          CLOUDY    39  33  79 N22       30.28R
6HR MIN TEMP:  39; 6HR MAX TEMP:  42; 6HR PCP:  0.02;

$$




USA.gov is the U.S. government's official web portal to all federal, state and local government web resources and services.